Flag for Germany Weather past 2 weeks in Ludwigsfelde, Brandenburg, Germany

Now
32 °F

Low clouds.


Feels Like: 32 °F
Forecast: 23 / 29 °F
Wind: 2 mph from Northwest

Location: Potsdam

Current Time: Dec 26, 2014 at 1:17:20 PM

Latest Report: Dec 26, 2014 at 1:00 PM


Visibility: 19 mi

Pressure: 30.32 "Hg

Humidity: 95%

Dew point: 31 °F

Location of LudwigsfeldeLocation

Historic Weather in Ludwigsfelde — Graph

°F

Ludwigsfelde temperature yesterday

Maximum temperature yesterday: 42 °F (at 1:00 PM)
Minimum temperature yesterday: 35 °F (at 11:00 PM)
Average temperature yesterday: 39 °F

Past Weeks' High & Low Weather Summary

 TemperatureHumidityPressure
High53 °F (Dec 19, 2:00 AM)99% (Dec 17, 4:00 AM)30.33 "Hg (Dec 17, 4:00 AM)
Low31 °F (Dec 26, 9:00 AM)70% (Dec 20, 12:00 PM)29.38 "Hg (Dec 12, 6:00 PM)
Average42 °F89%29.86 "Hg
* Reported Dec 11 12:00 Noon — Dec 26 12:00 Noon, Ludwigsfelde, Weather by CustomWeather, © 2014

Note: Actual official high and low records may vary slightly from our data, if they occured in-between our weather recording intervals... More about our weather records

Advertising

Ludwigsfelde weather history for previous 24 hours

 ConditionsComfort  
Time TempWeatherWind HumidityBarometerVisibility
12:00 PM
Dec 26
32 °FLow clouds.3 mph95%30.33 "Hg7 mi
11:00 AM32 °FLight snow. Low clouds.3 mph96%30.33 "Hg5 mi
10:00 AM31 °FLight snow. Low clouds.5 mph98%30.32 "Hg5 mi
9:00 AM31 °FLight snow. Low clouds.2 mph98%30.32 "Hg3 mi
8:00 AM31 °FLight snow. Low clouds.7 mph96%30.31 "Hg2 mi
7:00 AM32 °FLight snow. Low clouds.3 mph95%30.29 "Hg1 mi
6:00 AM34 °FLow clouds.2 mph94%30.28 "Hg19 mi
5:00 AM34 °FLow clouds.3 mph95%30.28 "Hg22 mi
4:00 AM34 °FOvercast.3 mph92%30.26 "Hg28 mi
3:00 AM34 °FOvercast.3 mph90%30.26 "Hg28 mi
2:00 AM35 °FOvercast.5 mph89%30.24 "Hg28 mi
1:00 AM35 °FOvercast.5 mph89%30.21 "Hg28 mi
12:00 AM35 °FOvercast.6 mph85%30.17 "Hg28 mi
11:00 PM
Dec 25
35 °FOvercast.8 mph87%30.13 "Hg25 mi
10:00 PM36 °FLow clouds.7 mph92%30.08 "Hg16 mi
9:00 PM37 °FLight rain. Low clouds.7 mph97%30.01 "Hg9 mi
8:00 PM39 °FLight rain. Overcast.9 mph85%30.00 "Hg19 mi
7:00 PM41 °FOvercast.10 mph73%29.97 "Hg25 mi
6:00 PM41 °FOvercast.10 mph70%29.96 "Hg28 mi
5:00 PM41 °FOvercast.10 mph74%29.96 "Hg22 mi
4:00 PM41 °FPassing clouds.9 mph74%29.96 "Hg22 mi
3:00 PM40 °FPartly sunny.8 mph85%29.96 "Hg19 mi
2:00 PM40 °FSprinkles. Overcast.14 mph88%29.96 "Hg11 mi
1:00 PM42 °FPartly sunny.10 mph81%29.95 "Hg17 mi
Weather by CustomWeather, © 2014

See weather overviewHow to use our weather pages